Theta_e
311 311 311 312 312 311 311 311 311 312 312 314 315 317 318 317 318 322 323 323 321 319 318 319 320 327 332 335 334 334 330 335 336 338 341 340 340 339 339 338 338 339 339 338 337
311 311 312 312 312 312 312 312 312 313 315 316 317 318 319 319 320 323 323 320 320 325 326 326 322 332 333 334 335 332 330 333 332 334 341 340 339 339 339 337 337 337 338 338 336
311 312 312 313 313 312 312 312 314 315 316 317 319 319 320 322 323 325 324 318 327 331 332 329 326 327 334 334 334 336 335 334 335 338 340 338 337 337 338 336 336 336 337 336 334
311 312 313 314 313 313 312 314 315 315 317 318 319 319 320 321 316 324 319 323 329 332 331 332 331 333 331 332 333 337 339 338 340 338 337 336 335 335 334 335 337 337 336 334 330
311 312 314 314 313 313 313 314 316 316 318 318 319 320 321 323 321 319 320 326 326 329 332 334 333 332 330 331 331 337 339 338 338 338 336 336 335 333 331 335 337 336 334 330 327
311 311 314 314 314 313 314 315 316 317 318 318 320 322 322 323 323 321 323 325 324 323 328 332 332 332 332 333 331 338 337 337 337 335 335 333 333 334 331 332 334 334 333 328 325
311 312 315 315 314 314 315 316 317 317 317 319 320 325 325 324 323 322 321 322 323 326 326 331 332 333 333 333 335 337 334 334 336 336 334 335 335 335 331 331 330 326 326 324 324
311 312 315 315 314 315 316 317 317 318 318 319 320 324 325 324 322 324 325 325 325 325 326 327 329 333 334 334 334 332 331 336 328 337 335 335 337 333 331 330 326 325 326 325 327
311 312 314 315 315 317 317 318 319 319 319 319 320 321 326 324 324 324 325 324 324 324 324 330 333 332 333 328 330 330 332 331 334 332 336 336 336 333 332 330 327 324 327 326 326
312 312 314 315 317 318 319 319 321 322 322 324 321 321 322 325 325 325 325 325 327 331 332 332 330 326 327 327 331 331 331 333 333 333 333 334 336 334 332 331 326 327 326 325 326
312 312 314 315 319 319 320 323 325 327 325 325 325 323 321 322 325 325 325 323 329 322 319 322 325 328 327 329 330 329 331 332 331 330 332 333 335 333 334 333 328 327 324 322 325
312 312 314 318 320 320 322 323 322 321 322 326 326 325 325 325 325 324 324 324 323 319 320 321 328 329 330 331 333 331 332 334 332 330 331 333 334 330 328 328 331 327 326 324 325
312 313 314 320 321 322 323 322 321 321 323 325 325 325 326 326 326 324 324 323 321 320 322 325 327 331 331 331 331 329 331 332 335 330 329 329 334 331 329 327 326 327 327 325 325
312 313 314 321 321 323 323 323 324 325 321 324 325 326 326 325 324 325 324 323 320 320 324 328 327 331 331 332 329 330 329 332 331 330 333 327 329 332 330 328 326 326 326 326 325
312 313 315 321 323 323 323 325 325 326 324 327 325 325 326 324 324 323 324 323 321 327 327 328 328 329 329 330 328 328 331 330 330 328 326 326 327 326 328 327 326 326 327 326 326
313 313 315 323 323 323 325 326 326 324 330 329 325 322 322 324 323 326 324 324 325 326 327 328 331 329 330 327 327 329 325 320 322 321 326 327 326 324 327 328 327 327 328 327 324
313 313 316 323 323 323 325 327 321 327 326 333 329 327 327 330 329 328 327 326 327 329 329 327 327 329 326 326 322 323 319 324 324 327 329 326 322 322 323 325 326 326 327 327 327
313 313 316 323 323 323 327 323 328 328 331 332 332 327 331 331 329 329 329 327 325 325 326 328 330 326 325 325 328 324 318 320 325 327 328 324 328 323 321 325 326 326 327 327 326
313 313 315 321 322 324 327 329 329 330 332 334 330 328 328 330 330 330 326 328 326 324 329 328 329 326 324 323 323 325 326 320 324 322 324 326 326 321 320 323 325 325 325 325 325
314 315 315 320 322 324 325 326 329 330 333 331 331 329 329 330 333 330 326 324 324 323 323 326 329 326 326 322 321 323 321 323 319 327 329 326 326 323 320 319 323 324 325 323 324
320 320 316 320 323 324 324 325 327 332 331 330 330 328 327 333 330 328 326 324 325 322 323 322 324 325 323 323 322 321 322 321 319 321 324 325 324 319 319 316 319 319 320 320 322
323 319 317 322 322 323 324 327 331 332 326 326 326 327 329 330 327 325 327 327 328 323 326 323 320 323 324 323 321 319 322 319 321 326 320 320 320 314 313 313 315 316 317 317 317
325 327 319 322 319 320 326 330 330 326 325 326 326 328 327 327 327 326 324 328 330 328 327 323 321 325 327 319 318 317 317 317 316 316 321 320 319 317 318 319 318 318 318 318 317
327 321 323 322 328 325 330 329 330 326 325 325 325 326 328 328 325 326 328 330 326 324 324 323 319 324 327 320 319 319 317 315 314 315 317 317 321 319 319 320 319 318 318 317 317
333 330 325 318 323 326 328 329 327 327 325 325 325 325 328 330 330 330 329 330 328 326 322 317 321 318 316 319 320 321 322 320 317 316 318 320 321 320 319 319 319 318 317 317 315
335 334 330 328 329 328 326 328 328 326 325 325 325 326 325 328 327 329 330 331 328 324 322 317 321 319 321 322 322 323 322 322 323 322 320 321 323 320 321 320 316 317 316 313 311
332 336 331 330 328 327 327 330 328 325 326 327 326 325 326 326 329 330 328 328 327 325 325 321 322 321 323 323 323 325 324 323 323 322 322 324 321 318 319 315 314 311 310 310 309
Wind_Speed
16 14 11 10 8 7 7 7 7 8 6 5 5 5 5 6 10 13 7 9 12 15 15 14 14 10 11 7 3 6 5 2 5 5 3 11 5 4 4 7 1 0 10 22 23
17 15 11 8 7 7 8 6 8 8 6 5 5 5 6 7 9 8 8 11 17 15 12 12 15 14 4 5 3 4 4 8 5 4 5 8 6 10 6 9 4 12 17 21 24
17 15 11 9 9 8 6 6 7 7 6 5 5 5 5 4 5 5 8 15 15 11 7 10 12 14 3 3 3 3 3 4 4 6 19 9 8 5 11 6 7 18 28 25 22
17 14 11 9 8 7 5 5 6 7 6 5 5 6 4 4 6 9 16 19 17 14 11 17 20 5 4 2 4 6 13 8 11 8 9 5 12 7 2 1 15 24 25 26 23
16 13 10 9 7 5 4 5 6 6 5 6 6 7 3 4 6 16 19 20 14 11 12 13 6 5 5 4 4 5 5 13 16 15 15 11 10 5 4 12 20 25 26 23 20
15 13 9 8 6 4 4 5 6 5 5 6 8 9 5 6 12 16 17 16 12 9 9 7 2 7 9 5 5 8 17 11 10 11 7 9 6 3 4 13 18 20 21 20 19
15 12 8 7 6 3 3 4 4 5 6 7 9 7 6 6 9 13 11 8 5 3 4 10 2 0 6 6 7 13 6 6 5 4 5 7 5 4 12 13 14 12 17 16 13
14 11 8 6 5 3 3 4 5 6 6 7 7 4 4 7 10 11 9 6 4 8 8 4 8 6 4 13 5 4 5 3 1 2 2 5 1 6 11 11 10 7 11 13 12
13 10 7 5 4 3 3 4 5 7 6 6 5 4 4 6 8 7 6 4 3 7 10 8 6 7 8 5 3 3 1 2 3 2 4 2 3 9 11 8 10 7 9 14 15
13 10 6 4 3 3 4 4 7 8 4 6 4 1 2 4 4 3 1 6 5 18 15 3 3 4 3 3 4 3 4 5 4 3 7 6 6 9 9 8 11 12 11 11 18
12 9 5 3 3 5 5 4 4 1 7 3 4 3 5 3 2 2 2 10 13 3 3 2 5 3 5 7 5 6 6 7 2 4 6 9 9 7 1 9 15 18 13 11 16
11 8 4 2 4 6 7 6 7 6 6 5 10 11 8 7 2 6 4 4 4 4 3 5 1 4 1 4 3 7 9 4 3 5 6 9 8 6 10 11 5 21 21 14 14
9 6 3 2 3 6 7 11 13 4 1 4 3 4 3 7 6 9 10 4 2 3 3 5 3 2 4 2 3 3 6 6 6 7 6 6 3 2 2 2 1 8 17 17 15
8 5 2 2 3 4 5 16 11 2 4 4 2 3 7 5 2 9 9 5 2 1 6 2 2 2 2 2 4 2 1 12 16 4 3 0 2 2 1 2 2 6 11 16 14
7 4 1 2 2 5 9 12 3 2 4 2 2 2 8 5 1 5 10 8 5 4 3 1 2 0 2 2 4 3 6 11 5 6 4 6 4 4 1 5 4 7 14 15 13
7 3 3 4 1 7 10 7 2 5 2 4 1 2 4 5 4 2 3 5 4 5 6 3 3 4 2 6 9 12 12 8 5 3 3 3 3 4 2 3 5 8 10 16 17
6 3 6 6 1 7 8 3 5 4 2 6 3 3 5 4 6 6 4 6 3 3 2 5 5 2 7 5 2 6 4 3 3 4 3 3 3 5 4 4 5 11 10 10 14
5 2 8 7 1 6 8 5 2 2 4 3 3 3 4 3 5 6 3 5 6 5 3 2 3 7 10 3 1 3 5 4 4 3 2 4 1 3 5 3 5 6 6 6 9
4 2 7 6 1 5 3 4 5 5 3 3 3 6 5 5 4 5 5 3 4 5 2 4 2 3 5 3 2 1 5 3 6 3 3 2 2 5 6 4 4 7 6 7 9
4 2 5 8 2 4 4 3 3 3 4 2 4 2 3 5 3 4 3 3 5 8 2 2 4 4 5 7 7 6 4 1 3 3 1 3 3 3 7 7 6 7 10 14 14
2 1 8 10 3 2 3 4 4 8 6 3 2 4 4 3 4 3 3 2 3 1 9 3 4 5 4 4 3 5 3 6 5 3 4 3 3 4 7 6 9 19 21 21 18
2 3 10 10 2 3 1 3 4 4 9 7 6 4 4 4 5 3 3 1 6 1 3 1 5 3 2 3 4 2 2 3 4 2 2 3 2 9 10 17 23 24 28 29 22
3 4 8 5 2 2 5 3 4 4 6 5 5 6 4 4 5 3 2 5 8 1 4 5 2 3 6 6 5 6 4 4 5 3 1 4 3 12 15 20 21 24 28 28 25
2 3 4 3 1 5 1 2 2 10 7 7 4 6 5 6 5 3 3 5 10 7 8 7 3 4 6 4 3 4 6 3 4 4 3 1 1 8 7 9 19 24 25 18 19
4 2 2 1 2 2 2 2 3 4 5 11 6 6 3 3 3 2 2 2 6 6 6 5 4 4 7 8 8 6 7 10 6 2 3 1 3 3 3 7 9 9 10 14 18
3 2 4 3 1 2 2 2 4 3 5 4 7 4 5 4 4 6 4 1 1 7 4 5 4 4 6 6 9 7 5 7 7 5 5 3 2 5 8 2 8 10 12 16 18
5 3 2 3 2 2 2 2 3 10 11 11 9 8 10 4 19 15 10 11 7 5 3 3 5 3 3 6 4 5 1 5 5 4 1 3 3 9 5 6 7 10 11 13 16
Wind_Direction
6 7 5 3 1 10 18 21 34 43 34 27 49 60 75 97 138 138 137 138 137 140 150 161 165 155 153 142 101 116 68 183 207 145 152 140 124 122 147 151 92 281 153 156 149
4 3 5 8 8 20 21 24 42 41 32 30 49 62 82 115 150 145 134 132 136 140 160 181 161 153 171 114 93 70 109 210 142 146 138 130 121 142 151 155 109 124 137 151 152
2 1 1 5 10 17 19 33 43 38 26 35 53 58 91 133 159 169 152 143 133 134 154 191 182 164 109 102 61 109 127 62 43 125 135 130 120 147 144 182 164 146 148 155 157
356 0 358 2 8 10 25 36 37 28 25 33 42 36 36 139 142 169 159 142 137 139 153 149 143 111 74 45 58 78 46 64 114 101 96 102 118 112 25 23 175 157 158 163 165
353 359 353 358 2 353 31 30 30 19 15 27 19 6 54 125 133 153 154 152 160 159 158 162 162 131 130 115 80 87 113 65 93 96 96 115 82 88 82 141 162 163 169 171 168
350 354 350 355 354 349 34 22 19 1 4 16 0 357 112 103 147 153 156 164 169 166 178 193 249 146 110 64 52 106 99 100 83 91 108 108 126 50 73 147 154 165 173 171 166
348 348 347 349 347 340 35 4 0 341 356 6 2 37 106 86 156 165 169 166 152 179 199 208 215 338 109 90 100 124 82 89 80 86 123 96 47 71 152 162 156 143 156 153 146
343 345 342 344 341 334 28 341 333 332 353 353 353 52 80 125 145 143 151 162 201 208 214 248 215 112 79 118 76 76 71 135 133 150 158 28 35 128 154 159 146 134 161 170 182
340 342 335 342 344 346 355 326 320 323 339 335 322 16 115 118 135 154 158 98 101 175 206 172 160 84 115 91 33 6 169 81 49 8 111 59 118 155 180 155 116 130 185 189 192
339 340 333 347 352 357 342 332 309 306 350 325 321 99 111 100 120 104 195 186 117 123 118 172 97 87 50 105 246 157 136 74 116 8 54 79 85 157 185 154 148 180 182 211 227
340 338 330 3 346 25 23 18 11 304 314 231 272 302 296 65 70 182 178 132 152 141 98 29 67 264 249 210 61 106 83 99 80 126 82 86 70 36 234 221 172 196 191 219 227
340 336 330 355 16 61 76 48 26 319 308 258 252 257 259 269 296 209 153 169 205 105 105 29 181 233 31 106 115 102 113 92 68 67 88 99 74 58 55 21 145 194 215 236 258
337 331 307 5 50 99 70 15 340 321 216 289 261 254 221 193 204 215 199 194 102 122 163 149 236 100 32 359 39 130 142 185 150 104 41 110 106 133 195 74 52 231 236 244 264
332 316 290 50 113 87 34 353 333 149 65 291 272 214 169 151 216 218 210 194 55 173 156 106 26 95 16 303 109 304 180 139 140 124 152 207 174 201 227 281 239 240 236 234 259
324 307 234 131 71 52 354 353 46 115 76 315 267 164 175 169 109 34 215 216 158 106 109 321 50 8 231 65 164 198 104 130 101 82 108 359 77 264 328 321 322 242 229 230 241
319 291 189 174 62 13 3 359 89 43 351 349 317 41 83 35 31 76 122 140 120 81 42 52 44 72 303 25 95 107 88 57 59 92 51 296 115 304 295 288 310 310 263 248 246
312 266 176 181 98 11 1 356 39 103 311 328 352 43 88 15 40 31 39 31 80 96 63 19 9 5 34 94 44 87 63 34 343 11 225 281 76 231 266 243 248 288 293 269 253
308 243 182 183 350 6 354 52 87 249 253 311 356 89 108 119 17 11 75 45 25 58 85 157 317 7 335 34 157 219 146 156 250 191 235 342 24 272 253 278 309 323 328 307 258
312 256 192 186 107 345 351 74 202 209 254 315 52 60 27 35 109 66 40 56 22 45 109 129 76 311 45 346 13 337 52 158 106 31 81 281 278 341 3 342 318 342 336 313 290
317 299 168 160 132 352 67 214 239 235 324 44 103 84 80 6 67 62 14 20 347 27 163 124 97 13 346 17 27 91 145 71 25 131 137 329 327 259 339 327 324 303 315 319 302
23 137 160 141 138 298 116 235 272 313 185 96 91 73 89 104 71 60 341 25 339 35 65 96 93 314 40 14 285 348 29 58 109 99 144 158 273 328 297 331 342 346 342 332 315
28 61 145 138 60 48 132 196 316 305 55 55 88 74 61 59 59 67 87 285 347 38 53 97 116 91 152 287 313 66 95 107 113 190 78 121 244 346 354 38 36 22 18 19 1
64 97 144 153 120 10 292 311 354 43 25 49 54 64 48 84 106 125 148 27 28 135 152 171 36 87 339 347 3 43 2 89 95 88 99 138 250 8 40 38 24 23 17 16 12
58 59 82 144 96 134 218 10 109 48 51 56 83 82 79 44 16 129 113 36 67 78 84 95 82 155 183 181 147 45 9 35 102 90 159 194 326 358 28 40 25 5 356 345 346
49 72 93 234 306 89 85 336 79 29 55 36 35 31 107 104 70 111 94 93 45 39 52 85 78 68 49 83 83 80 52 49 65 153 97 90 84 346 11 9 4 351 358 358 354
68 105 95 72 32 84 16 330 131 133 37 25 94 21 50 98 188 195 123 79 150 33 59 20 104 54 56 55 93 85 53 62 49 45 87 93 86 290 300 332 12 3 0 356 353
49 85 115 5 22 64 233 182 121 126 44 113 137 96 61 36 95 87 94 96 96 97 87 80 128 98 171 174 141 54 14 101 99 36 8 47 353 330 3 59 10 358 1 351 350